Meteo Giornale » Osservazioni meteo Italia » Cagliari-Elmas

ore: 10:20 - Osservazioni Meteo Cagliari-Elmas
Lat. 39° 15' N Lon. 9° 4' E Alt. 4 metri s.l.m.

sereno Europe/Rome

13 °C

Sereno

Temp. 24 Ore

5 °C

16 °C

Ovest/Nord-Ovest

9.3 Km/h

Dew point 10 °C

Umidità 81 %

Visibilità  10 Km

Il sole sorge alle ore 06:09

Il sole tramonta alle ore 18:46

Data e Ora Cielo e Fenomeni T °C DP °C Um. % Pres. hPa Vis. km Vento km/h
Oggi h: 10:20 sereno Sereno 13 10 81 1014 10 O/NO 9.3
Oggi h: 09:50 sereno Sereno 12 10 87 1014 10 O/NO 11.1
Oggi h: 09:20 sereno Sereno 11 10 93 1015 10 NO 9.3
Oggi h: 08:50 sereno Sereno 10 9 93 1014 10 NO 7.4
Oggi h: 08:20 sereno Sereno 9 9 100 1014 10 NO 11.1
Oggi h: 07:50 sereno Sereno 8 8 100 1014 10 NO 11.1
Oggi h: 07:20 sereno Sereno 8 8 100 1014 10 NO 11.1
Oggi h: 06:50 sereno Sereno 7 7 100 1014 10 NO 11.1
Oggi h: 06:20 sereno Sereno 5 5 100 1014 10 N/NO 7.4
Oggi h: 05:50 sereno Sereno 6 6 100 1014 10 N/NO 9.3
Oggi h: 04:20 sereno Sereno 6 6 100 1015 10 N/NO 7.4
Oggi h: 03:50 sereno Sereno 7 7 100 1015 10 NO 7.4
Oggi h: 03:20 sereno Sereno 7 7 100 1015 10 NO 7.4
Oggi h: 03:50 sereno Sereno 8 8 100 1015 10 N 5.5
Oggi h: 01:50 sereno Sereno 8 8 100 1016 10 N 7.4
Oggi h: 01:20 sereno Sereno 9 9 100 1016 10 N 3.7
Oggi h: 00:50 sereno Sereno 9 9 100 1016 10 N 5.5
Oggi h: 00:20 sereno Sereno 10 9 93 1016 10 N 5.5
Ieri h: 23:50 sereno Sereno 10 9 93 1016 10 N 1.8
Ieri h: 23:20 sereno Sereno 11 9 87 1016 10 N 5.5
Ieri h: 22:50 sereno Sereno 11 10 93 1016 10 O/SO 7.4
Ieri h: 22:20 poco_nuvoloso Poco Nuvoloso 10 9 93 1016 10 N 3.7
Ieri h: 21:20 poco_nuvoloso Poco Nuvoloso 12 10 87 1015 10 N 3.7
Ieri h: 20:50 poco_nuvoloso Poco Nuvoloso 13 10 81 1015 10 N 3.7
Ieri h: 20:20 poco_nuvoloso Poco Nuvoloso 13 10 81 1015 10 N 5.5
Ieri h: 19:20 poco_nuvoloso Poco Nuvoloso 13 10 81 1014 10 S/SE 9.3
Ieri h: 18:50 poco_nuvoloso Poco Nuvoloso 13 10 81 1014 10 S/SE 9.3
Ieri h: 18:20 poco_nuvoloso Poco Nuvoloso 13 10 81 1014 10 S/SE 11.1
Ieri h: 17:50 poco_nuvoloso Poco Nuvoloso 14 9 71 1014 10 S/SE 13
Ieri h: 16:50 poco_nuvoloso Poco Nuvoloso 14 9 71 1013 10 S/SE 13
Ieri h: 16:20 poco_nuvoloso Poco Nuvoloso 15 9 67 1013 10 S/SE 16.7
Ieri h: 15:50 poco_nuvoloso Poco Nuvoloso 16 9 63 1014 10 S/SE 13
Ieri h: 15:20 poco_nuvoloso Poco Nuvoloso 16 9 63 1014 10 S/SE 14.8
Ieri h: 14:50 poco_nuvoloso Poco Nuvoloso 15 9 67 1014 10 S/SE 14.8
Ieri h: 14:20 poco_nuvoloso Poco Nuvoloso 16 10 67 1014 10 S/SE 16.7
Ieri h: 13:50 nuvoloso Nuvoloso 16 10 67 1014 10 S/SE 14.8
Ieri h: 13:20 nuvoloso Nuvoloso 15 10 72 1014 10 S 13
Ieri h: 12:50 nuvoloso Nuvoloso 16 9 63 1014 10 S/SE 13
Ieri h: 12:20 nuvoloso Nuvoloso 15 9 67 1014 10 S 13
Ieri h: 11:50 nuvoloso Nuvoloso 15 9 67 1014 10 S 14.8
Ieri h: 11:20 sereno Sereno 15 9 67 1014 10 S/SO 13
Ieri h: 10:50 sereno Sereno 14 9 71 1014 10 S/SO 11.1